DW5513 Weather Reports


Display with metric or nautical units.
time (UTC)temp
F
wind
direction
speed
MPH
gust
MPH
rain 1hr
in
rain 24hr
in
rain mn
in
humidity
%
barometer
mb
20260901203028 69 240 1.0 4.0 0.00 0.53 0.52 94 1015.2
20260901201526 70 162 1.0 3.0 0.00 0.53 0.52 94 1015.3
20260901200037 70 159 0.0 5.0 0.00 0.53 0.52 93 1015.4
20260901194525 70 163 0.0 4.0 0.00 0.53 0.52 93 1015.5
20260901193024 70 143 0.0 3.0 0.00 0.53 0.52 92 1015.5
20260901191529 72 238 1.0 3.0 0.00 0.53 0.52 90 1015.2
20260901190029 72 250 0.0 3.0 0.00 0.53 0.52 88 1015.2
20260901184522 72 95 0.0 5.0 0.00 0.53 0.52 88 1015.0
20260901183035 72 83 0.0 4.0 0.00 0.53 0.52 89 1014.9
20260901181520 72 138 0.0 2.0 0.00 0.53 0.52 90 1014.9
20260901180017 71 164 0.0 1.0 0.00 0.53 0.52 91 1014.9
20260901174515 71 140 0.0 1.0 0.00 0.53 0.52 91 1014.8
20260901173014 71 131 0.0 1.0 0.00 0.53 0.52 91 1014.9
20260901171513 70 79 0.0 2.0 0.00 0.53 0.52 91 1014.9
20260901170011 70 124 0.0 3.0 0.00 0.53 0.52 92 1014.8
20260901164511 70 78 0.0 2.0 0.00 0.53 0.52 92 1014.8
20260901163008 69 228 0.0 1.0 0.00 0.53 0.52 94 1014.8
20260901161505 68 131 0.0 0.0 0.00 0.53 0.52 95 1015.0
20260901160004 68 124 0.0 0.0 0.00 0.53 0.52 96 1015.0
20260901154501 67 123 0.0 1.0 0.00 0.53 0.52 97 1015.1
20260901153100 67 121 0.0 3.0 0.00 0.53 0.52 98 1014.9
20260901151559 67 269 0.0 1.0 0.03 0.53 0.52 98 1014.9
20260901150058 67 177 0.0 2.0 0.04 0.53 0.52 98 1014.8
20260901144555 66 251 0.0 3.0 0.04 0.53 0.52 98 1014.6
20260901143054 66 263 0.0 2.0 0.04 0.53 0.52 98 1014.9
20260901141559 66 67 0.0 1.0 0.02 0.50 0.49 98 1015.7
20260901140053 65 66 0.0 1.0 0.01 0.49 0.48 98 1015.6
20260901134552 65 71 0.0 1.0 0.01 0.49 0.48 98 1015.2
20260901133050 65 71 0.0 0.0 0.01 0.49 0.48 98 1015.2
20260901131549 65 72 0.0 1.0 0.00 0.48 0.47 98 1015.3
20260901130048 65 72 0.0 0.0 0.02 0.48 0.47 98 1015.5
20260901124554 65 72 0.0 1.0 0.02 0.48 0.47 98 1015.5
20260901123046 65 72 0.0 0.0 0.02 0.48 0.47 98 1015.7
20260901121557 64 72 0.0 0.0 0.02 0.48 0.47 98 1015.6
20260901120044 64 72 0.0 1.0 0.00 0.46 0.45 98 1015.9
20260901114552 0 0.0 0.0 0.00 0.46 0.45 1015.8
20260901113044 0 0.0 0.0 0.00 0.46 0.45 1016.0
20260901111548 0 0.0 0.0 0.00 0.46 0.45 1015.6
20260901110046 0 0.0 0.0 0.00 0.46 0.45 1015.6
20260901104543 0 0.0 0.0 0.00 0.46 0.45 1015.7
20260901103042 0 0.0 0.0 0.06 0.46 0.45 1015.6
20260901101539 0 0.0 0.0 0.10 0.46 0.45 1015.5
20260901100033 0 0.0 0.0 0.14 0.46 0.45 1015.8
20260901094530 64 105 0.0 2.0 0.24 0.46 0.45 98 1015.4
20260901093029 64 333 0.0 1.0 0.23 0.40 0.39 98 1015.6
20260901091540 64 84 0.0 2.0 0.21 0.35 0.34 98 1015.4
20260901090027 64 120 0.0 0.0 0.19 0.32 0.31 97 1015.2
20260901084531 64 122 0.0 0.0 0.11 0.22 0.21 97 1014.9
20260901083025 64 124 0.0 0.0 0.15 0.16 0.15 97 1014.8
20260901081526 64 75 0.0 0.0 0.13 0.14 0.13 97 1014.8
20260901080023 64 74 0.0 0.0 0.12 0.13 0.12 97 1015.1
20260901074520 64 74 0.0 0.0 0.09 0.10 0.09 97 1015.4
20260901073023 64 74 0.0 0.0 0.00 0.01 0.00 97 1015.6
20260901071518 64 74 0.0 0.0 0.00 0.01 0.00 97 1015.6
20260901070025 64 74 0.0 1.0 0.00 0.01 0.00 97 1015.7
20260901064514 64 75 0.0 1.0 0.00 0.01 0.00 97 1016.2
20260901063012 64 75 0.0 0.0 0.00 0.01 0.00 97 1016.2
20260901061512 64 75 0.0 0.0 0.00 0.01 0.00 97 1016.3
20260901060010 64 75 0.0 1.0 0.00 0.01 0.00 97 1016.1
20260901054509 64 76 0.0 1.0 0.00 0.01 0.00 96 1016.3
20260901053011 64 33 0.0 0.0 0.00 0.01 0.00 96 1016.5
20260901051505 64 33 0.0 0.0 0.00 0.01 0.00 97 1017.0
20260901050004 64 31 0.0 1.0 0.00 0.01 0.00 96 1017.3
20260901044506 64 31 0.0 0.0 0.00 0.01 0.00 97 1017.0
20260901043002 64 32 0.0 0.0 0.00 0.01 0.00 97 1016.9
20260901041611 64 30 0.0 1.0 0.00 0.01 0.00 97 1016.9
20260901034605 64 44 1.0 3.0 0.00 0.01 0.01 96 1017.0
20260901034526 64 40 0.0 3.0 0.00 0.01 0.01 97 1017.0
20260901033104 64 65 0.0 0.0 0.01 0.01 0.01 96 1017.2
20260901031553 64 72 0.0 1.0 0.01 0.01 0.01 96 1017.2
20260901030052 64 71 0.0 2.0 0.01 0.01 0.01 96 1017.5
20260901024555 65 108 0.0 1.0 0.00 0.00 0.00 96 1017.4
20260901023051 65 108 0.0 1.0 0.00 0.00 0.00 95 1017.4
20260901021549 65 150 0.0 0.0 0.00 0.00 0.00 94 1017.6
20260901020048 66 164 0.0 0.0 0.00 0.00 0.00 93 1018.0
20260901014548 66 166 0.0 0.0 0.00 0.00 0.00 93 1017.8
20260901013048 65 162 0.0 1.0 0.00 0.00 0.00 93 1017.7
20260901011555 65 163 0.0 1.0 0.00 0.00 0.00 93 1017.6
20260901010047 65 180 0.0 0.0 0.00 0.00 0.00 93 1017.4
20260901004546 65 180 0.0 0.0 0.00 0.00 0.00 92 1017.5
20260901003054 66 179 0.0 0.0 0.00 0.00 0.00 92 1017.4
20260901001545 66 180 0.0 0.0 0.00 0.00 0.00 91 1017.4
20260901000044 67 180 0.0 0.0 0.00 0.00 0.00 89 1017.6
20260831234542 68 176 0.0 2.0 0.00 0.00 0.00 86 1017.6
20260831233041 68 290 0.0 2.0 0.00 0.00 0.00 84 1017.7
20260831231540 68 105 0.0 0.0 0.00 0.00 0.00 83 1017.6
20260831230039 69 170 0.0 0.0 0.00 0.00 0.00 82 1017.8
20260831224538 69 175 0.0 1.0 0.00 0.00 0.00 82 1017.7
20260831223040 69 192 0.0 2.0 0.00 0.00 0.00 81 1017.9
20260831221539 69 165 0.0 3.0 0.00 0.00 0.00 82 1018.0
20260831220034 70 248 0.0 3.0 0.00 0.00 0.00 82 1018.1
20260831214541 70 196 1.0 4.0 0.00 0.00 0.00 82 1018.1
20260831213040 70 250 0.0 2.0 0.00 0.00 0.00 82 1018.3
20260831211532 70 161 0.0 2.0 0.00 0.00 0.00 81 1018.3
20260831210029 70 229 0.0 3.0 0.00 0.00 0.00 80 1018.4
20260831204529 71 154 0.0 3.0 0.00 0.01 0.00 79 1018.3